Index of /20260430/WXO-DD/model_gdps/15km/12/072
Name Last modified Size Description
Parent Directory -
20260430T12Z_MSC_GDPS_AbsoluteVorticity_IsbL-0200_LatLon0.15_PT072H.grib2 2026-04-30 16:12 1.5M
20260430T12Z_MSC_GDPS_AbsoluteVorticity_IsbL-0250_LatLon0.15_PT072H.grib2 2026-04-30 16:12 1.3M
20260430T12Z_MSC_GDPS_AbsoluteVorticity_IsbL-0500_LatLon0.15_PT072H.grib2 2026-04-30 16:12 1.4M
20260430T12Z_MSC_GDPS_AbsoluteVorticity_IsbL-0700_LatLon0.15_PT072H.grib2 2026-04-30 16:12 1.3M
20260430T12Z_MSC_GDPS_AbsoluteVorticity_IsbL-0850_LatLon0.15_PT072H.grib2 2026-04-30 16:12 1.6M
20260430T12Z_MSC_GDPS_AirTemp-Max_AGL-2m_LatLon0.15_PT072H.grib2 2026-04-30 16:12 741K
20260430T12Z_MSC_GDPS_AirTemp-Min_AGL-2m_LatLon0.15_PT072H.grib2 2026-04-30 16:12 791K
20260430T12Z_MSC_GDPS_AirTemp_AGL-120m_LatLon0.15_PT072H.grib2 2026-04-30 16:12 905K
20260430T12Z_MSC_GDPS_AirTemp_AGL-2m_LatLon0.15_PT072H.grib2 2026-04-30 16:12 1.0M
20260430T12Z_MSC_GDPS_AirTemp_AGL-40m_LatLon0.15_PT072H.grib2 2026-04-30 16:12 808K
20260430T12Z_MSC_GDPS_AirTemp_AGL-80m_LatLon0.15_PT072H.grib2 2026-04-30 16:12 796K
20260430T12Z_MSC_GDPS_AirTemp_IsbL-0001_LatLon0.15_PT072H.grib2 2026-04-30 16:12 656K
20260430T12Z_MSC_GDPS_AirTemp_IsbL-0005_LatLon0.15_PT072H.grib2 2026-04-30 16:12 681K
20260430T12Z_MSC_GDPS_AirTemp_IsbL-0010_LatLon0.15_PT072H.grib2 2026-04-30 16:12 694K
20260430T12Z_MSC_GDPS_AirTemp_IsbL-0020_LatLon0.15_PT072H.grib2 2026-04-30 16:12 788K
20260430T12Z_MSC_GDPS_AirTemp_IsbL-0030_LatLon0.15_PT072H.grib2 2026-04-30 16:12 837K
20260430T12Z_MSC_GDPS_AirTemp_IsbL-0050_LatLon0.15_PT072H.grib2 2026-04-30 16:12 812K
20260430T12Z_MSC_GDPS_AirTemp_IsbL-0100_LatLon0.15_PT072H.grib2 2026-04-30 16:12 966K
20260430T12Z_MSC_GDPS_AirTemp_IsbL-0150_LatLon0.15_PT072H.grib2 2026-04-30 16:12 972K
20260430T12Z_MSC_GDPS_AirTemp_IsbL-0175_LatLon0.15_PT072H.grib2 2026-04-30 16:12 960K
20260430T12Z_MSC_GDPS_AirTemp_IsbL-0200_LatLon0.15_PT072H.grib2 2026-04-30 16:12 1.0M
20260430T12Z_MSC_GDPS_AirTemp_IsbL-0225_LatLon0.15_PT072H.grib2 2026-04-30 16:12 1.0M
20260430T12Z_MSC_GDPS_AirTemp_IsbL-0250_LatLon0.15_PT072H.grib2 2026-04-30 16:12 1.0M
20260430T12Z_MSC_GDPS_AirTemp_IsbL-0275_LatLon0.15_PT072H.grib2 2026-04-30 16:12 1.0M
20260430T12Z_MSC_GDPS_AirTemp_IsbL-0300_LatLon0.15_PT072H.grib2 2026-04-30 16:12 1.0M
20260430T12Z_MSC_GDPS_AirTemp_IsbL-0350_LatLon0.15_PT072H.grib2 2026-04-30 16:12 932K
20260430T12Z_MSC_GDPS_AirTemp_IsbL-0400_LatLon0.15_PT072H.grib2 2026-04-30 16:12 940K
20260430T12Z_MSC_GDPS_AirTemp_IsbL-0450_LatLon0.15_PT072H.grib2 2026-04-30 16:12 963K
20260430T12Z_MSC_GDPS_AirTemp_IsbL-0500_LatLon0.15_PT072H.grib2 2026-04-30 16:12 1.0M
20260430T12Z_MSC_GDPS_AirTemp_IsbL-0550_LatLon0.15_PT072H.grib2 2026-04-30 16:12 1.0M
20260430T12Z_MSC_GDPS_AirTemp_IsbL-0600_LatLon0.15_PT072H.grib2 2026-04-30 16:12 895K
20260430T12Z_MSC_GDPS_AirTemp_IsbL-0650_LatLon0.15_PT072H.grib2 2026-04-30 16:12 923K
20260430T12Z_MSC_GDPS_AirTemp_IsbL-0700_LatLon0.15_PT072H.grib2 2026-04-30 16:12 959K
20260430T12Z_MSC_GDPS_AirTemp_IsbL-0750_LatLon0.15_PT072H.grib2 2026-04-30 16:12 1.0M
20260430T12Z_MSC_GDPS_AirTemp_IsbL-0800_LatLon0.15_PT072H.grib2 2026-04-30 16:12 1.1M
20260430T12Z_MSC_GDPS_AirTemp_IsbL-0850_LatLon0.15_PT072H.grib2 2026-04-30 16:12 1.1M
20260430T12Z_MSC_GDPS_AirTemp_IsbL-0875_LatLon0.15_PT072H.grib2 2026-04-30 16:12 1.2M
20260430T12Z_MSC_GDPS_AirTemp_IsbL-0900_LatLon0.15_PT072H.grib2 2026-04-30 16:12 1.2M
20260430T12Z_MSC_GDPS_AirTemp_IsbL-0925_LatLon0.15_PT072H.grib2 2026-04-30 16:12 1.1M
20260430T12Z_MSC_GDPS_AirTemp_IsbL-0950_LatLon0.15_PT072H.grib2 2026-04-30 16:12 1.1M
20260430T12Z_MSC_GDPS_AirTemp_IsbL-0970_LatLon0.15_PT072H.grib2 2026-04-30 16:12 1.2M
20260430T12Z_MSC_GDPS_AirTemp_IsbL-0985_LatLon0.15_PT072H.grib2 2026-04-30 16:12 1.1M
20260430T12Z_MSC_GDPS_AirTemp_IsbL-1000_LatLon0.15_PT072H.grib2 2026-04-30 16:12 1.1M
20260430T12Z_MSC_GDPS_AirTemp_IsbL-1015_LatLon0.15_PT072H.grib2 2026-04-30 16:12 1.1M
20260430T12Z_MSC_GDPS_Albedo_Sfc_LatLon0.15_PT072H.grib2 2026-04-30 16:12 240K
20260430T12Z_MSC_GDPS_CAPE_Sfc_LatLon0.15_PT072H.grib2 2026-04-30 16:12 4.0M
20260430T12Z_MSC_GDPS_CIN_Sfc_LatLon0.15_PT072H.grib2 2026-04-30 16:12 2.9M
20260430T12Z_MSC_GDPS_CloudWater_EAtm_LatLon0.15_PT072H.grib2 2026-04-30 16:12 535K
20260430T12Z_MSC_GDPS_ConvectivePrecip-Accum_Sfc_LatLon0.15_PT072H.grib2 2026-04-30 16:12 3.1M
20260430T12Z_MSC_GDPS_DewPointDepression_AGL-2m_LatLon0.15_PT072H.grib2 2026-04-30 16:12 758K
20260430T12Z_MSC_GDPS_DewPointDepression_IsbL-0010_LatLon0.15_PT072H.grib2 2026-04-30 16:12 63K
20260430T12Z_MSC_GDPS_DewPointDepression_IsbL-0020_LatLon0.15_PT072H.grib2 2026-04-30 16:12 67K
20260430T12Z_MSC_GDPS_DewPointDepression_IsbL-0030_LatLon0.15_PT072H.grib2 2026-04-30 16:12 83K
20260430T12Z_MSC_GDPS_DewPointDepression_IsbL-0050_LatLon0.15_PT072H.grib2 2026-04-30 16:12 375K
20260430T12Z_MSC_GDPS_DewPointDepression_IsbL-0100_LatLon0.15_PT072H.grib2 2026-04-30 16:12 407K
20260430T12Z_MSC_GDPS_DewPointDepression_IsbL-0150_LatLon0.15_PT072H.grib2 2026-04-30 16:12 471K
20260430T12Z_MSC_GDPS_DewPointDepression_IsbL-0175_LatLon0.15_PT072H.grib2 2026-04-30 16:12 584K
20260430T12Z_MSC_GDPS_DewPointDepression_IsbL-0200_LatLon0.15_PT072H.grib2 2026-04-30 16:12 686K
20260430T12Z_MSC_GDPS_DewPointDepression_IsbL-0225_LatLon0.15_PT072H.grib2 2026-04-30 16:12 784K
20260430T12Z_MSC_GDPS_DewPointDepression_IsbL-0250_LatLon0.15_PT072H.grib2 2026-04-30 16:12 866K
20260430T12Z_MSC_GDPS_DewPointDepression_IsbL-0275_LatLon0.15_PT072H.grib2 2026-04-30 16:12 883K
20260430T12Z_MSC_GDPS_DewPointDepression_IsbL-0300_LatLon0.15_PT072H.grib2 2026-04-30 16:12 920K
20260430T12Z_MSC_GDPS_DewPointDepression_IsbL-0350_LatLon0.15_PT072H.grib2 2026-04-30 16:12 955K
20260430T12Z_MSC_GDPS_DewPointDepression_IsbL-0400_LatLon0.15_PT072H.grib2 2026-04-30 16:12 1.0M
20260430T12Z_MSC_GDPS_DewPointDepression_IsbL-0450_LatLon0.15_PT072H.grib2 2026-04-30 16:12 1.0M
20260430T12Z_MSC_GDPS_DewPointDepression_IsbL-0500_LatLon0.15_PT072H.grib2 2026-04-30 16:12 1.0M
20260430T12Z_MSC_GDPS_DewPointDepression_IsbL-0550_LatLon0.15_PT072H.grib2 2026-04-30 16:12 1.0M
20260430T12Z_MSC_GDPS_DewPointDepression_IsbL-0600_LatLon0.15_PT072H.grib2 2026-04-30 16:12 1.0M
20260430T12Z_MSC_GDPS_DewPointDepression_IsbL-0650_LatLon0.15_PT072H.grib2 2026-04-30 16:12 1.1M
20260430T12Z_MSC_GDPS_DewPointDepression_IsbL-0700_LatLon0.15_PT072H.grib2 2026-04-30 16:12 1.1M
20260430T12Z_MSC_GDPS_DewPointDepression_IsbL-0750_LatLon0.15_PT072H.grib2 2026-04-30 16:12 1.1M
20260430T12Z_MSC_GDPS_DewPointDepression_IsbL-0800_LatLon0.15_PT072H.grib2 2026-04-30 16:12 1.2M
20260430T12Z_MSC_GDPS_DewPointDepression_IsbL-0850_LatLon0.15_PT072H.grib2 2026-04-30 16:12 1.2M
20260430T12Z_MSC_GDPS_DewPointDepression_IsbL-0875_LatLon0.15_PT072H.grib2 2026-04-30 16:12 1.1M
20260430T12Z_MSC_GDPS_DewPointDepression_IsbL-0900_LatLon0.15_PT072H.grib2 2026-04-30 16:12 1.1M
20260430T12Z_MSC_GDPS_DewPointDepression_IsbL-0925_LatLon0.15_PT072H.grib2 2026-04-30 16:12 1.0M
20260430T12Z_MSC_GDPS_DewPointDepression_IsbL-0950_LatLon0.15_PT072H.grib2 2026-04-30 16:12 1.0M
20260430T12Z_MSC_GDPS_DewPointDepression_IsbL-0970_LatLon0.15_PT072H.grib2 2026-04-30 16:12 1.0M
20260430T12Z_MSC_GDPS_DewPointDepression_IsbL-0985_LatLon0.15_PT072H.grib2 2026-04-30 16:12 1.0M
20260430T12Z_MSC_GDPS_DewPointDepression_IsbL-1000_LatLon0.15_PT072H.grib2 2026-04-30 16:12 971K
20260430T12Z_MSC_GDPS_DewPointDepression_IsbL-1015_LatLon0.15_PT072H.grib2 2026-04-30 16:12 911K
20260430T12Z_MSC_GDPS_DewPoint_AGL-2m_LatLon0.15_PT072H.grib2 2026-04-30 16:12 611K
20260430T12Z_MSC_GDPS_DownwardLongwaveRadiationFlux-Accum_Sfc_LatLon0.15_PT072H.grib2 2026-04-30 16:12 910K
20260430T12Z_MSC_GDPS_DownwardShortwaveRadiationFlux-Accum_NTAtm_LatLon0.15_PT072H.grib2 2026-04-30 16:12 154K
20260430T12Z_MSC_GDPS_DownwardShortwaveRadiationFlux-Accum_Sfc_LatLon0.15_PT072H.grib2 2026-04-30 16:12 1.1M
20260430T12Z_MSC_GDPS_FreezingRain-Accum12h_Sfc_LatLon0.15_PT072H.grib2 2026-04-30 16:12 91K
20260430T12Z_MSC_GDPS_FreezingRain-Accum1h_Sfc_LatLon0.15_PT072H.grib2 2026-04-30 16:12 45K
20260430T12Z_MSC_GDPS_FreezingRain-Accum24h_Sfc_LatLon0.15_PT072H.grib2 2026-04-30 16:12 147K
20260430T12Z_MSC_GDPS_FreezingRain-Accum3h_Sfc_LatLon0.15_PT072H.grib2 2026-04-30 16:12 51K
20260430T12Z_MSC_GDPS_FreezingRain-Accum6h_Sfc_LatLon0.15_PT072H.grib2 2026-04-30 16:12 68K
20260430T12Z_MSC_GDPS_FreezingRain-Accum_Sfc_LatLon0.15_PT072H.grib2 2026-04-30 16:12 313K
20260430T12Z_MSC_GDPS_GeopotentialHeight_IsbL-0001_LatLon0.15_PT072H.grib2 2026-04-30 16:12 424K
20260430T12Z_MSC_GDPS_GeopotentialHeight_IsbL-0005_LatLon0.15_PT072H.grib2 2026-04-30 16:12 486K
20260430T12Z_MSC_GDPS_GeopotentialHeight_IsbL-0010_LatLon0.15_PT072H.grib2 2026-04-30 16:12 479K
20260430T12Z_MSC_GDPS_GeopotentialHeight_IsbL-0020_LatLon0.15_PT072H.grib2 2026-04-30 16:12 417K
20260430T12Z_MSC_GDPS_GeopotentialHeight_IsbL-0030_LatLon0.15_PT072H.grib2 2026-04-30 16:12 573K
20260430T12Z_MSC_GDPS_GeopotentialHeight_IsbL-0050_LatLon0.15_PT072H.grib2 2026-04-30 16:12 570K
20260430T12Z_MSC_GDPS_GeopotentialHeight_IsbL-0100_LatLon0.15_PT072H.grib2 2026-04-30 16:12 610K
20260430T12Z_MSC_GDPS_GeopotentialHeight_IsbL-0150_LatLon0.15_PT072H.grib2 2026-04-30 16:12 626K
20260430T12Z_MSC_GDPS_GeopotentialHeight_IsbL-0175_LatLon0.15_PT072H.grib2 2026-04-30 16:12 629K
20260430T12Z_MSC_GDPS_GeopotentialHeight_IsbL-0200_LatLon0.15_PT072H.grib2 2026-04-30 16:12 634K
20260430T12Z_MSC_GDPS_GeopotentialHeight_IsbL-0225_LatLon0.15_PT072H.grib2 2026-04-30 16:12 632K
20260430T12Z_MSC_GDPS_GeopotentialHeight_IsbL-0250_LatLon0.15_PT072H.grib2 2026-04-30 16:12 638K
20260430T12Z_MSC_GDPS_GeopotentialHeight_IsbL-0275_LatLon0.15_PT072H.grib2 2026-04-30 16:12 639K
20260430T12Z_MSC_GDPS_GeopotentialHeight_IsbL-0300_LatLon0.15_PT072H.grib2 2026-04-30 16:12 632K
20260430T12Z_MSC_GDPS_GeopotentialHeight_IsbL-0350_LatLon0.15_PT072H.grib2 2026-04-30 16:12 626K
20260430T12Z_MSC_GDPS_GeopotentialHeight_IsbL-0400_LatLon0.15_PT072H.grib2 2026-04-30 16:12 619K
20260430T12Z_MSC_GDPS_GeopotentialHeight_IsbL-0450_LatLon0.15_PT072H.grib2 2026-04-30 16:12 609K
20260430T12Z_MSC_GDPS_GeopotentialHeight_IsbL-0500_LatLon0.15_PT072H.grib2 2026-04-30 16:12 599K
20260430T12Z_MSC_GDPS_GeopotentialHeight_IsbL-0550_LatLon0.15_PT072H.grib2 2026-04-30 16:12 526K
20260430T12Z_MSC_GDPS_GeopotentialHeight_IsbL-0600_LatLon0.15_PT072H.grib2 2026-04-30 16:12 523K
20260430T12Z_MSC_GDPS_GeopotentialHeight_IsbL-0650_LatLon0.15_PT072H.grib2 2026-04-30 16:12 691K
20260430T12Z_MSC_GDPS_GeopotentialHeight_IsbL-0700_LatLon0.15_PT072H.grib2 2026-04-30 16:12 686K
20260430T12Z_MSC_GDPS_GeopotentialHeight_IsbL-0750_LatLon0.15_PT072H.grib2 2026-04-30 16:12 694K
20260430T12Z_MSC_GDPS_GeopotentialHeight_IsbL-0800_LatLon0.15_PT072H.grib2 2026-04-30 16:12 704K
20260430T12Z_MSC_GDPS_GeopotentialHeight_IsbL-0850_LatLon0.15_PT072H.grib2 2026-04-30 16:12 711K
20260430T12Z_MSC_GDPS_GeopotentialHeight_IsbL-0875_LatLon0.15_PT072H.grib2 2026-04-30 16:12 716K
20260430T12Z_MSC_GDPS_GeopotentialHeight_IsbL-0900_LatLon0.15_PT072H.grib2 2026-04-30 16:12 726K
20260430T12Z_MSC_GDPS_GeopotentialHeight_IsbL-0925_LatLon0.15_PT072H.grib2 2026-04-30 16:12 734K
20260430T12Z_MSC_GDPS_GeopotentialHeight_IsbL-0950_LatLon0.15_PT072H.grib2 2026-04-30 16:12 742K
20260430T12Z_MSC_GDPS_GeopotentialHeight_IsbL-0970_LatLon0.15_PT072H.grib2 2026-04-30 16:12 753K
20260430T12Z_MSC_GDPS_GeopotentialHeight_IsbL-0985_LatLon0.15_PT072H.grib2 2026-04-30 16:12 768K
20260430T12Z_MSC_GDPS_GeopotentialHeight_IsbL-1000_LatLon0.15_PT072H.grib2 2026-04-30 16:12 789K
20260430T12Z_MSC_GDPS_GeopotentialHeight_IsbL-1015_LatLon0.15_PT072H.grib2 2026-04-30 16:12 807K
20260430T12Z_MSC_GDPS_Humidex_Sfc_LatLon0.15_PT072H.grib2 2026-04-30 16:12 5.3M
20260430T12Z_MSC_GDPS_IcePellets-Accum12h_Sfc_LatLon0.15_PT072H.grib2 2026-04-30 16:12 7.1K
20260430T12Z_MSC_GDPS_IcePellets-Accum1h_Sfc_LatLon0.15_PT072H.grib2 2026-04-30 16:12 3.8K
20260430T12Z_MSC_GDPS_IcePellets-Accum24h_Sfc_LatLon0.15_PT072H.grib2 2026-04-30 16:12 18K
20260430T12Z_MSC_GDPS_IcePellets-Accum3h_Sfc_LatLon0.15_PT072H.grib2 2026-04-30 16:12 4.7K
20260430T12Z_MSC_GDPS_IcePellets-Accum6h_Sfc_LatLon0.15_PT072H.grib2 2026-04-30 16:12 5.8K
20260430T12Z_MSC_GDPS_IcePellets-Accum_Sfc_LatLon0.15_PT072H.grib2 2026-04-30 16:12 66K
20260430T12Z_MSC_GDPS_KIndex_Sfc_LatLon0.15_PT072H.grib2 2026-04-30 16:12 6.5M
20260430T12Z_MSC_GDPS_LatentHeatNetFlux_Sfc_LatLon0.15_PT072H.grib2 2026-04-30 16:12 725K
20260430T12Z_MSC_GDPS_LiftedIndex-MU-VT_IsbL-0500_LatLon0.15_PT072H.grib2 2026-04-30 16:12 5.4M
20260430T12Z_MSC_GDPS_NetLongwaveRadiationFlux-Accum_Sfc_LatLon0.15_PT072H.grib2 2026-04-30 16:12 1.0M
20260430T12Z_MSC_GDPS_NetShortwaveRadiationFlux-Accum_Sfc_LatLon0.15_PT072H.grib2 2026-04-30 16:12 1.1M
20260430T12Z_MSC_GDPS_O3MixingRatio_Sfc_LatLon0.15_PT072H.grib2 2026-04-30 16:44 2.2M
20260430T12Z_MSC_GDPS_O3_EAtm_LatLon0.15_PT072H.grib2 2026-04-30 16:44 2.4M
20260430T12Z_MSC_GDPS_PlanetaryBoundaryLayerHeight_Sfc_LatLon0.15_PT072H.grib2 2026-04-30 16:12 2.5M
20260430T12Z_MSC_GDPS_Precip-Accum12h_Sfc_LatLon0.15_PT072H.grib2 2026-04-30 16:12 4.0M
20260430T12Z_MSC_GDPS_Precip-Accum1h_Sfc_LatLon0.15_PT072H.grib2 2026-04-30 16:12 3.2M
20260430T12Z_MSC_GDPS_Precip-Accum24h_Sfc_LatLon0.15_PT072H.grib2 2026-04-30 16:12 4.5M
20260430T12Z_MSC_GDPS_Precip-Accum3h_Sfc_LatLon0.15_PT072H.grib2 2026-04-30 16:12 3.5M
20260430T12Z_MSC_GDPS_Precip-Accum6h_Sfc_LatLon0.15_PT072H.grib2 2026-04-30 16:12 3.8M
20260430T12Z_MSC_GDPS_Precip-Accum_Sfc_LatLon0.15_PT072H.grib2 2026-04-30 16:12 5.2M
20260430T12Z_MSC_GDPS_PrecipRate_Sfc_LatLon0.15_PT072H.grib2 2026-04-30 16:12 3.2M
20260430T12Z_MSC_GDPS_PrecipType-Instant_Sfc_LatLon0.15_PT072H.grib2 2026-04-30 16:12 1.6M
20260430T12Z_MSC_GDPS_Pressure_MSL_LatLon0.15_PT072H.grib2 2026-04-30 16:12 824K
20260430T12Z_MSC_GDPS_Pressure_PVU-1.5_LatLon0.15_PT072H.grib2 2026-04-30 16:12 5.8M
20260430T12Z_MSC_GDPS_Pressure_PVU-1_LatLon0.15_PT072H.grib2 2026-04-30 16:12 6.0M
20260430T12Z_MSC_GDPS_Pressure_PVU-2_LatLon0.15_PT072H.grib2 2026-04-30 16:12 5.6M
20260430T12Z_MSC_GDPS_Pressure_Sfc_LatLon0.15_PT072H.grib2 2026-04-30 16:12 1.1M
20260430T12Z_MSC_GDPS_RadiativeTemp_Sfc_LatLon0.15_PT072H.grib2 2026-04-30 16:12 499K
20260430T12Z_MSC_GDPS_Rain-Accum12h_Sfc_LatLon0.15_PT072H.grib2 2026-04-30 16:12 2.7M
20260430T12Z_MSC_GDPS_Rain-Accum1h_Sfc_LatLon0.15_PT072H.grib2 2026-04-30 16:12 1.7M
20260430T12Z_MSC_GDPS_Rain-Accum24h_Sfc_LatLon0.15_PT072H.grib2 2026-04-30 16:12 3.2M
20260430T12Z_MSC_GDPS_Rain-Accum3h_Sfc_LatLon0.15_PT072H.grib2 2026-04-30 16:12 1.7M
20260430T12Z_MSC_GDPS_Rain-Accum6h_Sfc_LatLon0.15_PT072H.grib2 2026-04-30 16:12 2.4M
20260430T12Z_MSC_GDPS_Rain-Accum_Sfc_LatLon0.15_PT072H.grib2 2026-04-30 16:12 3.9M
20260430T12Z_MSC_GDPS_RelativeHumidity_AGL-2m_LatLon0.15_PT072H.grib2 2026-04-30 16:12 1.1M
20260430T12Z_MSC_GDPS_RelativeHumidity_IsbL-0010_LatLon0.15_PT072H.grib2 2026-04-30 16:12 131K
20260430T12Z_MSC_GDPS_RelativeHumidity_IsbL-0020_LatLon0.15_PT072H.grib2 2026-04-30 16:12 167K
20260430T12Z_MSC_GDPS_RelativeHumidity_IsbL-0030_LatLon0.15_PT072H.grib2 2026-04-30 16:12 269K
20260430T12Z_MSC_GDPS_RelativeHumidity_IsbL-0050_LatLon0.15_PT072H.grib2 2026-04-30 16:12 424K
20260430T12Z_MSC_GDPS_RelativeHumidity_IsbL-0100_LatLon0.15_PT072H.grib2 2026-04-30 16:12 509K
20260430T12Z_MSC_GDPS_RelativeHumidity_IsbL-0150_LatLon0.15_PT072H.grib2 2026-04-30 16:12 660K
20260430T12Z_MSC_GDPS_RelativeHumidity_IsbL-0175_LatLon0.15_PT072H.grib2 2026-04-30 16:12 787K
20260430T12Z_MSC_GDPS_RelativeHumidity_IsbL-0200_LatLon0.15_PT072H.grib2 2026-04-30 16:12 709K
20260430T12Z_MSC_GDPS_RelativeHumidity_IsbL-0225_LatLon0.15_PT072H.grib2 2026-04-30 16:12 793K
20260430T12Z_MSC_GDPS_RelativeHumidity_IsbL-0250_LatLon0.15_PT072H.grib2 2026-04-30 16:12 869K
20260430T12Z_MSC_GDPS_RelativeHumidity_IsbL-0275_LatLon0.15_PT072H.grib2 2026-04-30 16:12 889K
20260430T12Z_MSC_GDPS_RelativeHumidity_IsbL-0300_LatLon0.15_PT072H.grib2 2026-04-30 16:12 928K
20260430T12Z_MSC_GDPS_RelativeHumidity_IsbL-0350_LatLon0.15_PT072H.grib2 2026-04-30 16:12 950K
20260430T12Z_MSC_GDPS_RelativeHumidity_IsbL-0400_LatLon0.15_PT072H.grib2 2026-04-30 16:12 1.0M
20260430T12Z_MSC_GDPS_RelativeHumidity_IsbL-0450_LatLon0.15_PT072H.grib2 2026-04-30 16:12 1.0M
20260430T12Z_MSC_GDPS_RelativeHumidity_IsbL-0500_LatLon0.15_PT072H.grib2 2026-04-30 16:12 1.0M
20260430T12Z_MSC_GDPS_RelativeHumidity_IsbL-0550_LatLon0.15_PT072H.grib2 2026-04-30 16:12 1.1M
20260430T12Z_MSC_GDPS_RelativeHumidity_IsbL-0600_LatLon0.15_PT072H.grib2 2026-04-30 16:12 1.0M
20260430T12Z_MSC_GDPS_RelativeHumidity_IsbL-0650_LatLon0.15_PT072H.grib2 2026-04-30 16:12 1.1M
20260430T12Z_MSC_GDPS_RelativeHumidity_IsbL-0700_LatLon0.15_PT072H.grib2 2026-04-30 16:12 1.1M
20260430T12Z_MSC_GDPS_RelativeHumidity_IsbL-0750_LatLon0.15_PT072H.grib2 2026-04-30 16:12 1.2M
20260430T12Z_MSC_GDPS_RelativeHumidity_IsbL-0800_LatLon0.15_PT072H.grib2 2026-04-30 16:12 1.3M
20260430T12Z_MSC_GDPS_RelativeHumidity_IsbL-0850_LatLon0.15_PT072H.grib2 2026-04-30 16:12 1.3M
20260430T12Z_MSC_GDPS_RelativeHumidity_IsbL-0875_LatLon0.15_PT072H.grib2 2026-04-30 16:12 1.3M
20260430T12Z_MSC_GDPS_RelativeHumidity_IsbL-0900_LatLon0.15_PT072H.grib2 2026-04-30 16:12 1.2M
20260430T12Z_MSC_GDPS_RelativeHumidity_IsbL-0925_LatLon0.15_PT072H.grib2 2026-04-30 16:12 1.2M
20260430T12Z_MSC_GDPS_RelativeHumidity_IsbL-0950_LatLon0.15_PT072H.grib2 2026-04-30 16:12 1.2M
20260430T12Z_MSC_GDPS_RelativeHumidity_IsbL-0970_LatLon0.15_PT072H.grib2 2026-04-30 16:12 1.2M
20260430T12Z_MSC_GDPS_RelativeHumidity_IsbL-0985_LatLon0.15_PT072H.grib2 2026-04-30 16:12 1.1M
20260430T12Z_MSC_GDPS_RelativeHumidity_IsbL-1000_LatLon0.15_PT072H.grib2 2026-04-30 16:12 1.1M
20260430T12Z_MSC_GDPS_RelativeHumidity_IsbL-1015_LatLon0.15_PT072H.grib2 2026-04-30 16:12 1.0M
20260430T12Z_MSC_GDPS_RelativeVorticity_IsbL-0200_LatLon0.15_PT072H.grib2 2026-04-30 16:12 1.5M
20260430T12Z_MSC_GDPS_RelativeVorticity_IsbL-0250_LatLon0.15_PT072H.grib2 2026-04-30 16:12 1.6M
20260430T12Z_MSC_GDPS_RelativeVorticity_IsbL-0500_LatLon0.15_PT072H.grib2 2026-04-30 16:12 1.4M
20260430T12Z_MSC_GDPS_RelativeVorticity_IsbL-0700_LatLon0.15_PT072H.grib2 2026-04-30 16:12 1.6M
20260430T12Z_MSC_GDPS_RelativeVorticity_IsbL-0850_LatLon0.15_PT072H.grib2 2026-04-30 16:12 1.6M
20260430T12Z_MSC_GDPS_Runoff-Accum_Sfc_LatLon0.15_PT072H.grib2 2026-04-30 16:12 153K
20260430T12Z_MSC_GDPS_SensibleHeatNetFlux_Sfc_LatLon0.15_PT072H.grib2 2026-04-30 16:12 656K
20260430T12Z_MSC_GDPS_ShowalterIndex_IsbL-0500_LatLon0.15_PT072H.grib2 2026-04-30 16:12 6.2M
20260430T12Z_MSC_GDPS_Snow-Accum12h_Sfc_LatLon0.15_PT072H.grib2 2026-04-30 16:12 1.4M
20260430T12Z_MSC_GDPS_Snow-Accum1h_Sfc_LatLon0.15_PT072H.grib2 2026-04-30 16:12 1.1M
20260430T12Z_MSC_GDPS_Snow-Accum24h_Sfc_LatLon0.15_PT072H.grib2 2026-04-30 16:12 1.5M
20260430T12Z_MSC_GDPS_Snow-Accum3h_Sfc_LatLon0.15_PT072H.grib2 2026-04-30 16:12 1.1M
20260430T12Z_MSC_GDPS_Snow-Accum6h_Sfc_LatLon0.15_PT072H.grib2 2026-04-30 16:12 1.4M
20260430T12Z_MSC_GDPS_Snow-Accum_Sfc_LatLon0.15_PT072H.grib2 2026-04-30 16:12 1.9M
20260430T12Z_MSC_GDPS_SnowDensity_Sfc_LatLon0.15_PT072H.grib2 2026-04-30 16:12 264K
20260430T12Z_MSC_GDPS_SnowDepth_Sfc_LatLon0.15_PT072H.grib2 2026-04-30 16:12 1.7M
20260430T12Z_MSC_GDPS_SoilTemp_DBS-0to10cm_LatLon0.15_PT072H.grib2 2026-04-30 16:12 509K
20260430T12Z_MSC_GDPS_SoilTemp_Sfc_LatLon0.15_PT072H.grib2 2026-04-30 16:12 575K
20260430T12Z_MSC_GDPS_SoilVolumetricIceContent_Sfc_LatLon0.15_PT072H.grib2 2026-04-30 16:12 199K
20260430T12Z_MSC_GDPS_SoilVolumetricWaterContent_DBS-0to10cm_LatLon0.15_PT072H.grib2 2026-04-30 16:12 588K
20260430T12Z_MSC_GDPS_SoilVolumetricWaterContent_DBS-0to1cm_LatLon0.15_PT072H.grib2 2026-04-30 16:12 650K
20260430T12Z_MSC_GDPS_SpecificHumidity_AGL-120m_LatLon0.15_PT072H.grib2 2026-04-30 16:12 1.1M
20260430T12Z_MSC_GDPS_SpecificHumidity_AGL-2m_LatLon0.15_PT072H.grib2 2026-04-30 16:12 1.2M
20260430T12Z_MSC_GDPS_SpecificHumidity_AGL-40m_LatLon0.15_PT072H.grib2 2026-04-30 16:12 1.1M
20260430T12Z_MSC_GDPS_SpecificHumidity_AGL-80m_LatLon0.15_PT072H.grib2 2026-04-30 16:12 1.1M
20260430T12Z_MSC_GDPS_SpecificHumidity_IsbL-0001_LatLon0.15_PT072H.grib2 2026-04-30 16:12 1.3M
20260430T12Z_MSC_GDPS_SpecificHumidity_IsbL-0005_LatLon0.15_PT072H.grib2 2026-04-30 16:12 1.2M
20260430T12Z_MSC_GDPS_SpecificHumidity_IsbL-0010_LatLon0.15_PT072H.grib2 2026-04-30 16:12 1.3M
20260430T12Z_MSC_GDPS_SpecificHumidity_IsbL-0020_LatLon0.15_PT072H.grib2 2026-04-30 16:12 1.3M
20260430T12Z_MSC_GDPS_SpecificHumidity_IsbL-0030_LatLon0.15_PT072H.grib2 2026-04-30 16:12 1.3M
20260430T12Z_MSC_GDPS_SpecificHumidity_IsbL-0050_LatLon0.15_PT072H.grib2 2026-04-30 16:12 1.6M
20260430T12Z_MSC_GDPS_SpecificHumidity_IsbL-0100_LatLon0.15_PT072H.grib2 2026-04-30 16:12 1.3M
20260430T12Z_MSC_GDPS_SpecificHumidity_IsbL-0150_LatLon0.15_PT072H.grib2 2026-04-30 16:12 1.3M
20260430T12Z_MSC_GDPS_SpecificHumidity_IsbL-0175_LatLon0.15_PT072H.grib2 2026-04-30 16:12 1.3M
20260430T12Z_MSC_GDPS_SpecificHumidity_IsbL-0200_LatLon0.15_PT072H.grib2 2026-04-30 16:12 1.3M
20260430T12Z_MSC_GDPS_SpecificHumidity_IsbL-0225_LatLon0.15_PT072H.grib2 2026-04-30 16:12 1.3M
20260430T12Z_MSC_GDPS_SpecificHumidity_IsbL-0250_LatLon0.15_PT072H.grib2 2026-04-30 16:12 1.4M
20260430T12Z_MSC_GDPS_SpecificHumidity_IsbL-0275_LatLon0.15_PT072H.grib2 2026-04-30 16:12 1.3M
20260430T12Z_MSC_GDPS_SpecificHumidity_IsbL-0300_LatLon0.15_PT072H.grib2 2026-04-30 16:12 1.2M
20260430T12Z_MSC_GDPS_SpecificHumidity_IsbL-0350_LatLon0.15_PT072H.grib2 2026-04-30 16:12 1.2M
20260430T12Z_MSC_GDPS_SpecificHumidity_IsbL-0400_LatLon0.15_PT072H.grib2 2026-04-30 16:12 1.5M
20260430T12Z_MSC_GDPS_SpecificHumidity_IsbL-0450_LatLon0.15_PT072H.grib2 2026-04-30 16:12 1.6M
20260430T12Z_MSC_GDPS_SpecificHumidity_IsbL-0500_LatLon0.15_PT072H.grib2 2026-04-30 16:12 1.4M
20260430T12Z_MSC_GDPS_SpecificHumidity_IsbL-0550_LatLon0.15_PT072H.grib2 2026-04-30 16:12 1.6M
20260430T12Z_MSC_GDPS_SpecificHumidity_IsbL-0600_LatLon0.15_PT072H.grib2 2026-04-30 16:12 1.7M
20260430T12Z_MSC_GDPS_SpecificHumidity_IsbL-0650_LatLon0.15_PT072H.grib2 2026-04-30 16:12 1.5M
20260430T12Z_MSC_GDPS_SpecificHumidity_IsbL-0700_LatLon0.15_PT072H.grib2 2026-04-30 16:12 1.6M
20260430T12Z_MSC_GDPS_SpecificHumidity_IsbL-0750_LatLon0.15_PT072H.grib2 2026-04-30 16:12 1.7M
20260430T12Z_MSC_GDPS_SpecificHumidity_IsbL-0800_LatLon0.15_PT072H.grib2 2026-04-30 16:12 1.9M
20260430T12Z_MSC_GDPS_SpecificHumidity_IsbL-0850_LatLon0.15_PT072H.grib2 2026-04-30 16:12 1.9M
20260430T12Z_MSC_GDPS_SpecificHumidity_IsbL-0875_LatLon0.15_PT072H.grib2 2026-04-30 16:12 1.9M
20260430T12Z_MSC_GDPS_SpecificHumidity_IsbL-0900_LatLon0.15_PT072H.grib2 2026-04-30 16:12 1.6M
20260430T12Z_MSC_GDPS_SpecificHumidity_IsbL-0925_LatLon0.15_PT072H.grib2 2026-04-30 16:12 1.6M
20260430T12Z_MSC_GDPS_SpecificHumidity_IsbL-0950_LatLon0.15_PT072H.grib2 2026-04-30 16:12 1.6M
20260430T12Z_MSC_GDPS_SpecificHumidity_IsbL-0970_LatLon0.15_PT072H.grib2 2026-04-30 16:12 1.5M
20260430T12Z_MSC_GDPS_SpecificHumidity_IsbL-0985_LatLon0.15_PT072H.grib2 2026-04-30 16:12 1.5M
20260430T12Z_MSC_GDPS_SpecificHumidity_IsbL-1000_LatLon0.15_PT072H.grib2 2026-04-30 16:12 1.5M
20260430T12Z_MSC_GDPS_SpecificHumidity_IsbL-1015_LatLon0.15_PT072H.grib2 2026-04-30 16:12 1.5M
20260430T12Z_MSC_GDPS_SpecificHumidity_Sfc_LatLon0.15_PT072H.grib2 2026-04-30 16:12 677K
20260430T12Z_MSC_GDPS_Thickness_IsbL-0850to0700_LatLon0.15_PT072H.grib2 2026-04-30 16:12 469K
20260430T12Z_MSC_GDPS_Thickness_IsbL-1000to0500_LatLon0.15_PT072H.grib2 2026-04-30 16:12 372K
20260430T12Z_MSC_GDPS_Thickness_IsbL-1000to0850_LatLon0.15_PT072H.grib2 2026-04-30 16:12 492K
20260430T12Z_MSC_GDPS_TotalCloudCover_Sfc_LatLon0.15_PT072H.grib2 2026-04-30 16:12 825K
20260430T12Z_MSC_GDPS_TotalTotalsIndex_Sfc_LatLon0.15_PT072H.grib2 2026-04-30 16:12 6.2M
20260430T12Z_MSC_GDPS_UVIndex-ClearSky_Sfc_LatLon0.15_PT072H.grib2 2026-04-30 16:44 1.0M
20260430T12Z_MSC_GDPS_UVIndex_Sfc_LatLon0.15_PT072H.grib2 2026-04-30 16:44 1.4M
20260430T12Z_MSC_GDPS_UpwardLongwaveRadiationFlux_NTAtm_LatLon0.15_PT072H.grib2 2026-04-30 16:12 847K
20260430T12Z_MSC_GDPS_VerticalVelocity_IsbL-0200_LatLon0.15_PT072H.grib2 2026-04-30 16:12 1.2M
20260430T12Z_MSC_GDPS_VerticalVelocity_IsbL-0250_LatLon0.15_PT072H.grib2 2026-04-30 16:12 1.1M
20260430T12Z_MSC_GDPS_VerticalVelocity_IsbL-0500_LatLon0.15_PT072H.grib2 2026-04-30 16:12 1.3M
20260430T12Z_MSC_GDPS_VerticalVelocity_IsbL-0600_LatLon0.15_PT072H.grib2 2026-04-30 16:12 1.4M
20260430T12Z_MSC_GDPS_VerticalVelocity_IsbL-0700_LatLon0.15_PT072H.grib2 2026-04-30 16:12 1.4M
20260430T12Z_MSC_GDPS_VerticalVelocity_IsbL-0850_LatLon0.15_PT072H.grib2 2026-04-30 16:12 1.6M
20260430T12Z_MSC_GDPS_WindChill_Sfc_LatLon0.15_PT072H.grib2 2026-04-30 16:12 5.3M
20260430T12Z_MSC_GDPS_WindDir_AGL-10m_LatLon0.15_PT072H.grib2 2026-04-30 16:12 1.3M
20260430T12Z_MSC_GDPS_WindDir_AGL-120m_LatLon0.15_PT072H.grib2 2026-04-30 16:12 1.3M
20260430T12Z_MSC_GDPS_WindDir_AGL-40m_LatLon0.15_PT072H.grib2 2026-04-30 16:12 1.4M
20260430T12Z_MSC_GDPS_WindDir_AGL-80m_LatLon0.15_PT072H.grib2 2026-04-30 16:12 1.4M
20260430T12Z_MSC_GDPS_WindDir_IsbL-0001_LatLon0.15_PT072H.grib2 2026-04-30 16:12 679K
20260430T12Z_MSC_GDPS_WindDir_IsbL-0005_LatLon0.15_PT072H.grib2 2026-04-30 16:12 812K
20260430T12Z_MSC_GDPS_WindDir_IsbL-0010_LatLon0.15_PT072H.grib2 2026-04-30 16:12 838K
20260430T12Z_MSC_GDPS_WindDir_IsbL-0020_LatLon0.15_PT072H.grib2 2026-04-30 16:12 957K
20260430T12Z_MSC_GDPS_WindDir_IsbL-0030_LatLon0.15_PT072H.grib2 2026-04-30 16:12 941K
20260430T12Z_MSC_GDPS_WindDir_IsbL-0050_LatLon0.15_PT072H.grib2 2026-04-30 16:12 949K
20260430T12Z_MSC_GDPS_WindDir_IsbL-0100_LatLon0.15_PT072H.grib2 2026-04-30 16:12 1.0M
20260430T12Z_MSC_GDPS_WindDir_IsbL-0150_LatLon0.15_PT072H.grib2 2026-04-30 16:12 1.0M
20260430T12Z_MSC_GDPS_WindDir_IsbL-0175_LatLon0.15_PT072H.grib2 2026-04-30 16:12 1.0M
20260430T12Z_MSC_GDPS_WindDir_IsbL-0200_LatLon0.15_PT072H.grib2 2026-04-30 16:12 1.1M
20260430T12Z_MSC_GDPS_WindDir_IsbL-0225_LatLon0.15_PT072H.grib2 2026-04-30 16:12 1.1M
20260430T12Z_MSC_GDPS_WindDir_IsbL-0250_LatLon0.15_PT072H.grib2 2026-04-30 16:12 1.1M
20260430T12Z_MSC_GDPS_WindDir_IsbL-0275_LatLon0.15_PT072H.grib2 2026-04-30 16:12 1.2M
20260430T12Z_MSC_GDPS_WindDir_IsbL-0300_LatLon0.15_PT072H.grib2 2026-04-30 16:12 1.2M
20260430T12Z_MSC_GDPS_WindDir_IsbL-0350_LatLon0.15_PT072H.grib2 2026-04-30 16:12 1.2M
20260430T12Z_MSC_GDPS_WindDir_IsbL-0400_LatLon0.15_PT072H.grib2 2026-04-30 16:12 1.3M
20260430T12Z_MSC_GDPS_WindDir_IsbL-0450_LatLon0.15_PT072H.grib2 2026-04-30 16:12 1.3M
20260430T12Z_MSC_GDPS_WindDir_IsbL-0500_LatLon0.15_PT072H.grib2 2026-04-30 16:12 1.3M
20260430T12Z_MSC_GDPS_WindDir_IsbL-0550_LatLon0.15_PT072H.grib2 2026-04-30 16:12 1.4M
20260430T12Z_MSC_GDPS_WindDir_IsbL-0600_LatLon0.15_PT072H.grib2 2026-04-30 16:12 1.4M
20260430T12Z_MSC_GDPS_WindDir_IsbL-0650_LatLon0.15_PT072H.grib2 2026-04-30 16:12 1.5M
20260430T12Z_MSC_GDPS_WindDir_IsbL-0700_LatLon0.15_PT072H.grib2 2026-04-30 16:12 1.6M
20260430T12Z_MSC_GDPS_WindDir_IsbL-0750_LatLon0.15_PT072H.grib2 2026-04-30 16:12 1.7M
20260430T12Z_MSC_GDPS_WindDir_IsbL-0800_LatLon0.15_PT072H.grib2 2026-04-30 16:12 1.8M
20260430T12Z_MSC_GDPS_WindDir_IsbL-0850_LatLon0.15_PT072H.grib2 2026-04-30 16:12 1.9M
20260430T12Z_MSC_GDPS_WindDir_IsbL-0875_LatLon0.15_PT072H.grib2 2026-04-30 16:12 1.9M
20260430T12Z_MSC_GDPS_WindDir_IsbL-0900_LatLon0.15_PT072H.grib2 2026-04-30 16:12 2.0M
20260430T12Z_MSC_GDPS_WindDir_IsbL-0925_LatLon0.15_PT072H.grib2 2026-04-30 16:12 2.0M
20260430T12Z_MSC_GDPS_WindDir_IsbL-0950_LatLon0.15_PT072H.grib2 2026-04-30 16:12 2.0M
20260430T12Z_MSC_GDPS_WindDir_IsbL-0970_LatLon0.15_PT072H.grib2 2026-04-30 16:12 2.0M
20260430T12Z_MSC_GDPS_WindDir_IsbL-0985_LatLon0.15_PT072H.grib2 2026-04-30 16:12 2.0M
20260430T12Z_MSC_GDPS_WindDir_IsbL-1000_LatLon0.15_PT072H.grib2 2026-04-30 16:12 2.0M
20260430T12Z_MSC_GDPS_WindDir_IsbL-1015_LatLon0.15_PT072H.grib2 2026-04-30 16:12 2.0M
20260430T12Z_MSC_GDPS_WindGust-Max_AGL-10m_LatLon0.15_PT072H.grib2 2026-04-30 16:12 1.8M
20260430T12Z_MSC_GDPS_WindGust-Min_AGL-10m_LatLon0.15_PT072H.grib2 2026-04-30 16:12 2.2M
20260430T12Z_MSC_GDPS_WindGust_AGL-10m_LatLon0.15_PT072H.grib2 2026-04-30 16:12 2.2M
20260430T12Z_MSC_GDPS_WindSpeed_AGL-10m_LatLon0.15_PT072H.grib2 2026-04-30 16:12 1.1M
20260430T12Z_MSC_GDPS_WindSpeed_AGL-120m_LatLon0.15_PT072H.grib2 2026-04-30 16:12 1.2M
20260430T12Z_MSC_GDPS_WindSpeed_AGL-40m_LatLon0.15_PT072H.grib2 2026-04-30 16:12 1.2M
20260430T12Z_MSC_GDPS_WindSpeed_AGL-80m_LatLon0.15_PT072H.grib2 2026-04-30 16:12 1.2M
20260430T12Z_MSC_GDPS_WindSpeed_IsbL-0001_LatLon0.15_PT072H.grib2 2026-04-30 16:12 640K
20260430T12Z_MSC_GDPS_WindSpeed_IsbL-0005_LatLon0.15_PT072H.grib2 2026-04-30 16:12 691K
20260430T12Z_MSC_GDPS_WindSpeed_IsbL-0010_LatLon0.15_PT072H.grib2 2026-04-30 16:12 625K
20260430T12Z_MSC_GDPS_WindSpeed_IsbL-0020_LatLon0.15_PT072H.grib2 2026-04-30 16:12 669K
20260430T12Z_MSC_GDPS_WindSpeed_IsbL-0030_LatLon0.15_PT072H.grib2 2026-04-30 16:12 867K
20260430T12Z_MSC_GDPS_WindSpeed_IsbL-0050_LatLon0.15_PT072H.grib2 2026-04-30 16:12 908K
20260430T12Z_MSC_GDPS_WindSpeed_IsbL-0100_LatLon0.15_PT072H.grib2 2026-04-30 16:12 1.1M
20260430T12Z_MSC_GDPS_WindSpeed_IsbL-0150_LatLon0.15_PT072H.grib2 2026-04-30 16:12 949K
20260430T12Z_MSC_GDPS_WindSpeed_IsbL-0175_LatLon0.15_PT072H.grib2 2026-04-30 16:12 1.0M
20260430T12Z_MSC_GDPS_WindSpeed_IsbL-0200_LatLon0.15_PT072H.grib2 2026-04-30 16:12 1.1M
20260430T12Z_MSC_GDPS_WindSpeed_IsbL-0225_LatLon0.15_PT072H.grib2 2026-04-30 16:12 1.1M
20260430T12Z_MSC_GDPS_WindSpeed_IsbL-0250_LatLon0.15_PT072H.grib2 2026-04-30 16:12 1.1M
20260430T12Z_MSC_GDPS_WindSpeed_IsbL-0275_LatLon0.15_PT072H.grib2 2026-04-30 16:12 1.1M
20260430T12Z_MSC_GDPS_WindSpeed_IsbL-0300_LatLon0.15_PT072H.grib2 2026-04-30 16:12 1.1M
20260430T12Z_MSC_GDPS_WindSpeed_IsbL-0350_LatLon0.15_PT072H.grib2 2026-04-30 16:12 1.1M
20260430T12Z_MSC_GDPS_WindSpeed_IsbL-0400_LatLon0.15_PT072H.grib2 2026-04-30 16:12 1.1M
20260430T12Z_MSC_GDPS_WindSpeed_IsbL-0450_LatLon0.15_PT072H.grib2 2026-04-30 16:12 1.1M
20260430T12Z_MSC_GDPS_WindSpeed_IsbL-0500_LatLon0.15_PT072H.grib2 2026-04-30 16:12 1.1M
20260430T12Z_MSC_GDPS_WindSpeed_IsbL-0550_LatLon0.15_PT072H.grib2 2026-04-30 16:12 1.1M
20260430T12Z_MSC_GDPS_WindSpeed_IsbL-0600_LatLon0.15_PT072H.grib2 2026-04-30 16:12 1.4M
20260430T12Z_MSC_GDPS_WindSpeed_IsbL-0650_LatLon0.15_PT072H.grib2 2026-04-30 16:12 1.4M
20260430T12Z_MSC_GDPS_WindSpeed_IsbL-0700_LatLon0.15_PT072H.grib2 2026-04-30 16:12 1.2M
20260430T12Z_MSC_GDPS_WindSpeed_IsbL-0750_LatLon0.15_PT072H.grib2 2026-04-30 16:12 1.3M
20260430T12Z_MSC_GDPS_WindSpeed_IsbL-0800_LatLon0.15_PT072H.grib2 2026-04-30 16:12 1.4M
20260430T12Z_MSC_GDPS_WindSpeed_IsbL-0850_LatLon0.15_PT072H.grib2 2026-04-30 16:12 1.4M
20260430T12Z_MSC_GDPS_WindSpeed_IsbL-0875_LatLon0.15_PT072H.grib2 2026-04-30 16:12 1.8M
20260430T12Z_MSC_GDPS_WindSpeed_IsbL-0900_LatLon0.15_PT072H.grib2 2026-04-30 16:12 1.8M
20260430T12Z_MSC_GDPS_WindSpeed_IsbL-0925_LatLon0.15_PT072H.grib2 2026-04-30 16:12 1.8M
20260430T12Z_MSC_GDPS_WindSpeed_IsbL-0950_LatLon0.15_PT072H.grib2 2026-04-30 16:12 1.9M
20260430T12Z_MSC_GDPS_WindSpeed_IsbL-0970_LatLon0.15_PT072H.grib2 2026-04-30 16:12 1.9M
20260430T12Z_MSC_GDPS_WindSpeed_IsbL-0985_LatLon0.15_PT072H.grib2 2026-04-30 16:12 1.9M
20260430T12Z_MSC_GDPS_WindSpeed_IsbL-1000_LatLon0.15_PT072H.grib2 2026-04-30 16:12 1.8M
20260430T12Z_MSC_GDPS_WindSpeed_IsbL-1015_LatLon0.15_PT072H.grib2 2026-04-30 16:12 1.8M
20260430T12Z_MSC_GDPS_WindU_AGL-10m_LatLon0.15_PT072H.grib2 2026-04-30 16:12 1.3M
20260430T12Z_MSC_GDPS_WindU_AGL-120m_LatLon0.15_PT072H.grib2 2026-04-30 16:12 972K
20260430T12Z_MSC_GDPS_WindU_AGL-40m_LatLon0.15_PT072H.grib2 2026-04-30 16:12 969K
20260430T12Z_MSC_GDPS_WindU_AGL-80m_LatLon0.15_PT072H.grib2 2026-04-30 16:12 972K
20260430T12Z_MSC_GDPS_WindU_IsbL-0001_LatLon0.15_PT072H.grib2 2026-04-30 16:12 501K
20260430T12Z_MSC_GDPS_WindU_IsbL-0005_LatLon0.15_PT072H.grib2 2026-04-30 16:12 689K
20260430T12Z_MSC_GDPS_WindU_IsbL-0010_LatLon0.15_PT072H.grib2 2026-04-30 16:12 700K
20260430T12Z_MSC_GDPS_WindU_IsbL-0020_LatLon0.15_PT072H.grib2 2026-04-30 16:12 733K
20260430T12Z_MSC_GDPS_WindU_IsbL-0030_LatLon0.15_PT072H.grib2 2026-04-30 16:12 740K
20260430T12Z_MSC_GDPS_WindU_IsbL-0050_LatLon0.15_PT072H.grib2 2026-04-30 16:12 767K
20260430T12Z_MSC_GDPS_WindU_IsbL-0100_LatLon0.15_PT072H.grib2 2026-04-30 16:12 922K
20260430T12Z_MSC_GDPS_WindU_IsbL-0150_LatLon0.15_PT072H.grib2 2026-04-30 16:12 1.0M
20260430T12Z_MSC_GDPS_WindU_IsbL-0175_LatLon0.15_PT072H.grib2 2026-04-30 16:12 1.0M
20260430T12Z_MSC_GDPS_WindU_IsbL-0200_LatLon0.15_PT072H.grib2 2026-04-30 16:12 839K
20260430T12Z_MSC_GDPS_WindU_IsbL-0225_LatLon0.15_PT072H.grib2 2026-04-30 16:12 852K
20260430T12Z_MSC_GDPS_WindU_IsbL-0250_LatLon0.15_PT072H.grib2 2026-04-30 16:12 857K
20260430T12Z_MSC_GDPS_WindU_IsbL-0275_LatLon0.15_PT072H.grib2 2026-04-30 16:12 886K
20260430T12Z_MSC_GDPS_WindU_IsbL-0300_LatLon0.15_PT072H.grib2 2026-04-30 16:12 876K
20260430T12Z_MSC_GDPS_WindU_IsbL-0350_LatLon0.15_PT072H.grib2 2026-04-30 16:12 888K
20260430T12Z_MSC_GDPS_WindU_IsbL-0400_LatLon0.15_PT072H.grib2 2026-04-30 16:12 1.1M
20260430T12Z_MSC_GDPS_WindU_IsbL-0450_LatLon0.15_PT072H.grib2 2026-04-30 16:12 1.1M
20260430T12Z_MSC_GDPS_WindU_IsbL-0500_LatLon0.15_PT072H.grib2 2026-04-30 16:12 1.1M
20260430T12Z_MSC_GDPS_WindU_IsbL-0550_LatLon0.15_PT072H.grib2 2026-04-30 16:12 1.1M
20260430T12Z_MSC_GDPS_WindU_IsbL-0600_LatLon0.15_PT072H.grib2 2026-04-30 16:12 1.2M
20260430T12Z_MSC_GDPS_WindU_IsbL-0650_LatLon0.15_PT072H.grib2 2026-04-30 16:12 1.2M
20260430T12Z_MSC_GDPS_WindU_IsbL-0700_LatLon0.15_PT072H.grib2 2026-04-30 16:12 1.2M
20260430T12Z_MSC_GDPS_WindU_IsbL-0750_LatLon0.15_PT072H.grib2 2026-04-30 16:12 1.3M
20260430T12Z_MSC_GDPS_WindU_IsbL-0800_LatLon0.15_PT072H.grib2 2026-04-30 16:12 1.4M
20260430T12Z_MSC_GDPS_WindU_IsbL-0850_LatLon0.15_PT072H.grib2 2026-04-30 16:12 1.4M
20260430T12Z_MSC_GDPS_WindU_IsbL-0875_LatLon0.15_PT072H.grib2 2026-04-30 16:12 1.5M
20260430T12Z_MSC_GDPS_WindU_IsbL-0900_LatLon0.15_PT072H.grib2 2026-04-30 16:12 1.5M
20260430T12Z_MSC_GDPS_WindU_IsbL-0925_LatLon0.15_PT072H.grib2 2026-04-30 16:12 1.5M
20260430T12Z_MSC_GDPS_WindU_IsbL-0950_LatLon0.15_PT072H.grib2 2026-04-30 16:12 1.4M
20260430T12Z_MSC_GDPS_WindU_IsbL-0970_LatLon0.15_PT072H.grib2 2026-04-30 16:12 1.4M
20260430T12Z_MSC_GDPS_WindU_IsbL-0985_LatLon0.15_PT072H.grib2 2026-04-30 16:12 1.4M
20260430T12Z_MSC_GDPS_WindU_IsbL-1000_LatLon0.15_PT072H.grib2 2026-04-30 16:12 1.4M
20260430T12Z_MSC_GDPS_WindU_IsbL-1015_LatLon0.15_PT072H.grib2 2026-04-30 16:12 1.4M
20260430T12Z_MSC_GDPS_WindV_AGL-10m_LatLon0.15_PT072H.grib2 2026-04-30 16:12 1.3M
20260430T12Z_MSC_GDPS_WindV_AGL-120m_LatLon0.15_PT072H.grib2 2026-04-30 16:12 969K
20260430T12Z_MSC_GDPS_WindV_AGL-40m_LatLon0.15_PT072H.grib2 2026-04-30 16:12 962K
20260430T12Z_MSC_GDPS_WindV_AGL-80m_LatLon0.15_PT072H.grib2 2026-04-30 16:12 968K
20260430T12Z_MSC_GDPS_WindV_IsbL-0001_LatLon0.15_PT072H.grib2 2026-04-30 16:12 710K
20260430T12Z_MSC_GDPS_WindV_IsbL-0005_LatLon0.15_PT072H.grib2 2026-04-30 16:12 856K
20260430T12Z_MSC_GDPS_WindV_IsbL-0010_LatLon0.15_PT072H.grib2 2026-04-30 16:12 884K
20260430T12Z_MSC_GDPS_WindV_IsbL-0020_LatLon0.15_PT072H.grib2 2026-04-30 16:12 937K
20260430T12Z_MSC_GDPS_WindV_IsbL-0030_LatLon0.15_PT072H.grib2 2026-04-30 16:12 938K
20260430T12Z_MSC_GDPS_WindV_IsbL-0050_LatLon0.15_PT072H.grib2 2026-04-30 16:12 1.0M
20260430T12Z_MSC_GDPS_WindV_IsbL-0100_LatLon0.15_PT072H.grib2 2026-04-30 16:12 856K
20260430T12Z_MSC_GDPS_WindV_IsbL-0150_LatLon0.15_PT072H.grib2 2026-04-30 16:12 1.0M
20260430T12Z_MSC_GDPS_WindV_IsbL-0175_LatLon0.15_PT072H.grib2 2026-04-30 16:12 1.0M
20260430T12Z_MSC_GDPS_WindV_IsbL-0200_LatLon0.15_PT072H.grib2 2026-04-30 16:12 839K
20260430T12Z_MSC_GDPS_WindV_IsbL-0225_LatLon0.15_PT072H.grib2 2026-04-30 16:12 850K
20260430T12Z_MSC_GDPS_WindV_IsbL-0250_LatLon0.15_PT072H.grib2 2026-04-30 16:12 852K
20260430T12Z_MSC_GDPS_WindV_IsbL-0275_LatLon0.15_PT072H.grib2 2026-04-30 16:12 880K
20260430T12Z_MSC_GDPS_WindV_IsbL-0300_LatLon0.15_PT072H.grib2 2026-04-30 16:12 926K
20260430T12Z_MSC_GDPS_WindV_IsbL-0350_LatLon0.15_PT072H.grib2 2026-04-30 16:12 878K
20260430T12Z_MSC_GDPS_WindV_IsbL-0400_LatLon0.15_PT072H.grib2 2026-04-30 16:12 879K
20260430T12Z_MSC_GDPS_WindV_IsbL-0450_LatLon0.15_PT072H.grib2 2026-04-30 16:12 880K
20260430T12Z_MSC_GDPS_WindV_IsbL-0500_LatLon0.15_PT072H.grib2 2026-04-30 16:12 1.1M
20260430T12Z_MSC_GDPS_WindV_IsbL-0550_LatLon0.15_PT072H.grib2 2026-04-30 16:12 1.1M
20260430T12Z_MSC_GDPS_WindV_IsbL-0600_LatLon0.15_PT072H.grib2 2026-04-30 16:12 1.1M
20260430T12Z_MSC_GDPS_WindV_IsbL-0650_LatLon0.15_PT072H.grib2 2026-04-30 16:12 1.2M
20260430T12Z_MSC_GDPS_WindV_IsbL-0700_LatLon0.15_PT072H.grib2 2026-04-30 16:12 1.2M
20260430T12Z_MSC_GDPS_WindV_IsbL-0750_LatLon0.15_PT072H.grib2 2026-04-30 16:12 1.3M
20260430T12Z_MSC_GDPS_WindV_IsbL-0800_LatLon0.15_PT072H.grib2 2026-04-30 16:12 1.3M
20260430T12Z_MSC_GDPS_WindV_IsbL-0850_LatLon0.15_PT072H.grib2 2026-04-30 16:12 1.4M
20260430T12Z_MSC_GDPS_WindV_IsbL-0875_LatLon0.15_PT072H.grib2 2026-04-30 16:12 1.4M
20260430T12Z_MSC_GDPS_WindV_IsbL-0900_LatLon0.15_PT072H.grib2 2026-04-30 16:12 1.4M
20260430T12Z_MSC_GDPS_WindV_IsbL-0925_LatLon0.15_PT072H.grib2 2026-04-30 16:12 1.4M
20260430T12Z_MSC_GDPS_WindV_IsbL-0950_LatLon0.15_PT072H.grib2 2026-04-30 16:12 1.4M
20260430T12Z_MSC_GDPS_WindV_IsbL-0970_LatLon0.15_PT072H.grib2 2026-04-30 16:12 1.4M
20260430T12Z_MSC_GDPS_WindV_IsbL-0985_LatLon0.15_PT072H.grib2 2026-04-30 16:12 1.4M
20260430T12Z_MSC_GDPS_WindV_IsbL-1000_LatLon0.15_PT072H.grib2 2026-04-30 16:12 1.4M
20260430T12Z_MSC_GDPS_WindV_IsbL-1015_LatLon0.15_PT072H.grib2 2026-04-30 16:12 1.3M